| time (UTC) | temp F | wind direction | speed MPH | gust MPH | rain 1hr in | rain 24hr in | rain mn in | humidity % | barometer mb |
| 20260502194003 | 42 | 246 | 3.0 | 6.0 | 0.00 | 0.00 | 0.00 | 72 | 1014.6 |
| 20260502193503 | 42 | 243 | 3.0 | 6.0 | 0.00 | 0.00 | 0.00 | 70 | 1014.6 |
| 20260502193217 | 43 | 240 | 3.0 | 4.0 | 0.00 | 0.00 | 0.00 | 70 | 1014.6 |
| 20260502192503 | 43 | 227 | 2.0 | 5.0 | 0.00 | 0.00 | 0.00 | 72 | 1014.7 |
| 20260502192217 | 43 | 218 | 2.0 | 5.0 | 0.00 | 0.00 | 0.00 | 72 | 1014.7 |
| 20260502191503 | 43 | 204 | 2.0 | 3.0 | 0.00 | 0.00 | 0.00 | 71 | 1014.7 |
| 20260502191003 | 43 | 216 | 2.0 | 4.0 | 0.00 | 0.00 | 0.00 | 71 | 1014.8 |
| 20260502190503 | 43 | 218 | 2.0 | 5.0 | 0.00 | 0.01 | 0.00 | 71 | 1014.7 |
| 20260502190004 | 43 | 221 | 2.0 | 7.0 | 0.00 | 0.01 | 0.00 | 69 | 1014.6 |
| 20260502185503 | 44 | 237 | 2.0 | 7.0 | 0.00 | 0.01 | 0.00 | 65 | 1014.6 |
| 20260502185216 | 44 | 243 | 2.0 | 4.0 | 0.00 | 0.01 | 0.00 | 65 | 1014.6 |
| 20260502184717 | 44 | 240 | 1.0 | 3.0 | 0.00 | 0.01 | 0.00 | 67 | 1014.7 |
| 20260502184003 | 44 | 278 | 1.0 | 3.0 | 0.00 | 0.01 | 0.00 | 66 | 1014.6 |
| 20260502183717 | 44 | 277 | 1.0 | 2.0 | 0.00 | 0.01 | 0.00 | 68 | 1014.6 |
| 20260502183218 | 44 | 265 | 1.0 | 3.0 | 0.00 | 0.01 | 0.00 | 66 | 1014.6 |
| 20260502182503 | 45 | 319 | 1.0 | 3.0 | 0.00 | 0.01 | 0.00 | 67 | 1014.5 |
| 20260502182218 | 45 | 331 | 2.0 | 6.0 | 0.00 | 0.01 | 0.00 | 69 | 1014.6 |
| 20260502181503 | 45 | 308 | 2.0 | 6.0 | 0.00 | 0.01 | 0.00 | 66 | 1014.6 |
| 20260502181003 | 45 | 266 | 2.0 | 3.0 | 0.00 | 0.01 | 0.00 | 67 | 1014.6 |
| 20260502180503 | 45 | 240 | 2.0 | 4.0 | 0.00 | 0.01 | 0.00 | 64 | 1014.5 |
| 20260502164003 | 46 | 302 | 2.0 | 4.0 | 0.00 | 0.02 | 0.00 | 55 | 1014.4 |
| 20260502163503 | 46 | 263 | 2.0 | 4.0 | 0.00 | 0.02 | 0.00 | 61 | 1014.5 |
| 20260502163003 | 46 | 248 | 2.0 | 4.0 | 0.00 | 0.02 | 0.00 | 60 | 1014.6 |
| 20260502162503 | 45 | 257 | 2.0 | 5.0 | 0.00 | 0.02 | 0.00 | 62 | 1014.6 |
| 20260502162003 | 44 | 272 | 2.0 | 5.0 | 0.00 | 0.03 | 0.00 | 61 | 1014.7 |
| 20260502161503 | 44 | 268 | 2.0 | 5.0 | 0.00 | 0.03 | 0.00 | 62 | 1014.7 |
| 20260502161003 | 44 | 284 | 1.0 | 3.0 | 0.00 | 0.03 | 0.00 | 59 | 1014.7 |
| 20260502160503 | 44 | 269 | 2.0 | 7.0 | 0.00 | 0.03 | 0.00 | 59 | 1014.6 |
| 20260502152003 | 45 | 241 | 2.0 | 4.0 | 0.00 | 0.03 | 0.00 | 59 | 1014.5 |
| 20260502151718 | 44 | 244 | 2.0 | 4.0 | 0.00 | 0.03 | 0.00 | 57 | 1014.5 |
| 20260502151015 | 44 | 268 | 1.0 | 3.0 | 0.00 | 0.03 | 0.00 | 59 | 1014.6 |
| 20260502150503 | 44 | 266 | 2.0 | 5.0 | 0.00 | 0.03 | 0.00 | 58 | 1014.5 |
| 20260502130503 | 41 | 314 | 2.0 | 4.0 | 0.00 | 0.03 | 0.00 | 71 | 1015.2 |
| 20260502130218 | 40 | 299 | 2.0 | 4.0 | 0.00 | 0.03 | 0.00 | 70 | 1015.2 |
| 20260502123503 | 39 | 258 | 1.0 | 3.0 | 0.00 | 0.03 | 0.00 | 78 | 1015.2 |
| 20260502123003 | 38 | 245 | 1.0 | 3.0 | 0.00 | 0.03 | 0.00 | 81 | 1015.2 |
| 20260502122717 | 38 | 252 | 1.0 | 3.0 | 0.00 | 0.03 | 0.00 | 80 | 1015.4 |
| 20260502122003 | 37 | 279 | 1.0 | 3.0 | 0.00 | 0.03 | 0.00 | 84 | 1015.3 |
| 20260502121503 | 37 | 216 | 1.0 | 3.0 | 0.00 | 0.03 | 0.00 | 84 | 1015.2 |
| 20260502121003 | 36 | 207 | 1.0 | 3.0 | 0.00 | 0.03 | 0.00 | 85 | 1015.2 |
| 20260502120503 | 36 | 212 | 0.0 | 3.0 | 0.00 | 0.03 | 0.00 | 86 | 1015.2 |
| 20260502115503 | 35 | 195 | 0.0 | 2.0 | 0.00 | 0.03 | 0.00 | 87 | 1015.2 |
| 20260502115006 | 35 | 187 | 1.0 | 3.0 | 0.00 | 0.03 | 0.00 | 89 | 1015.2 |
| 20260502114503 | 34 | 193 | 1.0 | 4.0 | 0.00 | 0.03 | 0.00 | 89 | 1015.3 |
| 20260502114004 | 34 | 214 | 1.0 | 4.0 | 0.00 | 0.03 | 0.00 | 89 | 1015.2 |
| 20260502113717 | 34 | 215 | 1.0 | 3.0 | 0.00 | 0.03 | 0.00 | 89 | 1015.2 |
| 20260502113004 | 33 | 208 | 0.0 | 3.0 | 0.00 | 0.03 | 0.00 | 90 | 1015.3 |
| 20260502112717 | 33 | 0 | 0.0 | 0.0 | 0.00 | 0.03 | 0.00 | 91 | 1015.3 |
| 20260502112003 | 33 | 0 | 0.0 | 0.0 | 0.00 | 0.03 | 0.00 | 91 | 1015.1 |
| 20260502111503 | 33 | 0 | 0.0 | 0.0 | 0.00 | 0.03 | 0.00 | 91 | 1015.2 |
| 20260502111218 | 33 | 0 | 0.0 | 0.0 | 0.00 | 0.03 | 0.00 | 91 | 1015.2 |
| 20260502110503 | 33 | 0 | 0.0 | 0.0 | 0.00 | 0.03 | 0.00 | 91 | 1015.1 |
| 20260502110003 | 33 | 0 | 0.0 | 0.0 | 0.00 | 0.03 | 0.00 | 91 | 1015.1 |
| 20260502105503 | 33 | 0 | 0.0 | 0.0 | 0.00 | 0.03 | 0.00 | 90 | 1015.0 |
| 20260502105217 | 33 | 0 | 0.0 | 0.0 | 0.00 | 0.03 | 0.00 | 90 | 1015.0 |
| 20260502104503 | 33 | 0 | 0.0 | 0.0 | 0.00 | 0.03 | 0.00 | 90 | 1015.0 |
| 20260502104003 | 33 | 0 | 0.0 | 0.0 | 0.00 | 0.03 | 0.00 | 90 | 1015.0 |
| 20260502103504 | 33 | 0 | 0.0 | 0.0 | 0.00 | 0.03 | 0.00 | 90 | 1014.7 |
| 20260502103003 | 33 | 0 | 0.0 | 0.0 | 0.00 | 0.03 | 0.00 | 91 | 1014.7 |
| 20260502102503 | 33 | 0 | 0.0 | 0.0 | 0.00 | 0.03 | 0.00 | 90 | 1014.7 |
| 20260502101503 | 32 | 0 | 0.0 | 0.0 | 0.00 | 0.03 | 0.00 | 91 | 1014.6 |
| 20260502101003 | 32 | 0 | 0.0 | 0.0 | 0.00 | 0.03 | 0.00 | 91 | 1014.6 |
| 20260502100503 | 32 | 0 | 0.0 | 0.0 | 0.00 | 0.03 | 0.00 | 90 | 1014.5 |
| 20260502091503 | 33 | 0 | 0.0 | 0.0 | 0.00 | 0.03 | 0.00 | 89 | 1014.3 |
| 20260502091003 | 33 | 0 | 0.0 | 0.0 | 0.00 | 0.03 | 0.00 | 89 | 1014.3 |
| 20260502090718 | 33 | 0 | 0.0 | 0.0 | 0.00 | 0.03 | 0.00 | 89 | 1014.2 |
| 20260502071503 | 35 | 250 | 1.0 | 2.0 | 0.00 | 0.03 | 0.00 | 87 | 1013.8 |
| 20260502071218 | 35 | 250 | 1.0 | 2.0 | 0.00 | 0.03 | 0.00 | 86 | 1013.9 |
| 20260502070503 | 36 | 250 | 1.0 | 2.0 | 0.00 | 0.03 | 0.00 | 86 | 1013.9 |
| 20260502070003 | 35 | 250 | 1.0 | 2.0 | 0.00 | 0.03 | 0.00 | 86 | 1013.9 |
| 20260502065503 | 36 | 250 | 1.0 | 2.0 | 0.00 | 0.03 | 0.00 | 86 | 1014.0 |
| 20260502065218 | 36 | 250 | 1.0 | 2.0 | 0.00 | 0.03 | 0.00 | 86 | 1013.9 |
| 20260502064504 | 36 | 250 | 1.0 | 2.0 | 0.00 | 0.03 | 0.00 | 85 | 1013.9 |
| 20260502064003 | 36 | 250 | 1.0 | 2.0 | 0.00 | 0.03 | 0.00 | 85 | 1013.7 |
| 20260502063503 | 36 | 250 | 1.0 | 2.0 | 0.00 | 0.03 | 0.00 | 85 | 1013.7 |
| 20260502063003 | 36 | 250 | 1.0 | 2.0 | 0.00 | 0.03 | 0.00 | 84 | 1013.9 |
| 20260502062503 | 36 | 250 | 1.0 | 2.0 | 0.00 | 0.03 | 0.00 | 84 | 1013.9 |
| 20260502062003 | 36 | 250 | 1.0 | 2.0 | 0.00 | 0.03 | 0.00 | 84 | 1013.9 |
| 20260502061003 | 37 | 250 | 1.0 | 2.0 | 0.00 | 0.03 | 0.00 | 83 | 1014.0 |
| 20260502060503 | 37 | 250 | 1.0 | 2.0 | 0.00 | 0.03 | 0.00 | 83 | 1014.0 |
| 20260502060004 | 37 | 250 | 0.0 | 2.0 | 0.00 | 0.03 | 0.00 | 83 | 1014.0 |
| 20260502055503 | 37 | 250 | 1.0 | 2.0 | 0.00 | 0.03 | 0.00 | 83 | 1014.1 |
| 20260502055003 | 37 | 250 | 1.0 | 2.0 | 0.00 | 0.03 | 0.00 | 83 | 1014.1 |
| 20260502054503 | 38 | 250 | 1.0 | 2.0 | 0.00 | 0.03 | 0.00 | 83 | 1014.1 |
| 20260502054003 | 38 | 250 | 1.0 | 2.0 | 0.00 | 0.03 | 0.00 | 82 | 1014.1 |
| 20260502053716 | 38 | 250 | 1.0 | 2.0 | 0.00 | 0.03 | 0.00 | 82 | 1014.1 |
| 20260502053003 | 38 | 250 | 1.0 | 2.0 | 0.00 | 0.03 | 0.00 | 82 | 1014.0 |
| 20260502052503 | 38 | 250 | 1.0 | 2.0 | 0.00 | 0.03 | 0.00 | 82 | 1014.0 |
| 20260502052003 | 38 | 250 | 1.0 | 2.0 | 0.00 | 0.03 | 0.00 | 82 | 1014.0 |
| 20260502051503 | 39 | 0 | 0.0 | 0.0 | 0.00 | 0.03 | 0.00 | 81 | 1014.0 |
| 20260502051217 | 39 | 0 | 0.0 | 0.0 | 0.00 | 0.03 | 0.00 | 81 | 1013.9 |
| 20260502050503 | 39 | 250 | 1.0 | 2.0 | 0.00 | 0.03 | 0.00 | 81 | 1013.7 |
| 20260502050217 | 39 | 250 | 1.0 | 2.0 | 0.00 | 0.03 | 0.00 | 80 | 1013.7 |
| 20260502045503 | 40 | 250 | 1.0 | 3.0 | 0.00 | 0.03 | 0.00 | 80 | 1013.6 |
| 20260502045003 | 40 | 244 | 1.0 | 7.0 | 0.00 | 0.03 | 0.00 | 79 | 1013.5 |
| 20260502044504 | 40 | 215 | 1.0 | 7.0 | 0.00 | 0.03 | 0.00 | 79 | 1013.5 |
| 20260502044003 | 40 | 225 | 1.0 | 3.0 | 0.00 | 0.03 | 0.00 | 79 | 1013.4 |
| 20260502043503 | 40 | 259 | 1.0 | 3.0 | 0.00 | 0.03 | 0.00 | 78 | 1013.4 |
| 20260502043003 | 41 | 259 | 2.0 | 3.0 | 0.00 | 0.03 | 0.00 | 79 | 1013.4 |
| 20260502042503 | 41 | 244 | 2.0 | 3.0 | 0.00 | 0.03 | 0.00 | 78 | 1013.4 |
| 20260502042003 | 41 | 243 | 1.0 | 3.0 | 0.00 | 0.03 | 0.00 | 80 | 1013.3 |
| 20260502041503 | 41 | 252 | 0.0 | 2.0 | 0.00 | 0.03 | 0.00 | 82 | 1013.3 |
| 20260502041003 | 42 | 252 | 0.0 | 1.0 | 0.00 | 0.03 | 0.00 | 82 | 1013.2 |
| 20260502040503 | 42 | 252 | 0.0 | 2.0 | 0.00 | 0.03 | 0.00 | 81 | 1013.3 |
| 20260502040004 | 42 | 252 | 1.0 | 2.0 | 0.00 | 0.03 | 0.00 | 82 | 1013.3 |
| 20260502035503 | 42 | 252 | 1.0 | 2.0 | 0.00 | 0.03 | 0.03 | 82 | 1013.3 |
| 20260502035003 | 42 | 252 | 1.0 | 2.0 | 0.00 | 0.03 | 0.03 | 82 | 1013.3 |
| 20260502034503 | 42 | 252 | 1.0 | 2.0 | 0.00 | 0.03 | 0.03 | 83 | 1013.3 |
| 20260502034003 | 42 | 252 | 1.0 | 2.0 | 0.00 | 0.03 | 0.03 | 83 | 1013.4 |
| 20260502033503 | 42 | 250 | 1.0 | 3.0 | 0.00 | 0.03 | 0.03 | 83 | 1013.3 |
| 20260502033217 | 42 | 246 | 1.0 | 3.0 | 0.00 | 0.03 | 0.03 | 82 | 1013.2 |
| 20260502032503 | 42 | 242 | 1.0 | 3.0 | 0.00 | 0.03 | 0.03 | 83 | 1013.2 |
| 20260502032217 | 42 | 243 | 1.0 | 3.0 | 0.00 | 0.03 | 0.03 | 83 | 1013.2 |
| 20260502031503 | 42 | 246 | 1.0 | 3.0 | 0.00 | 0.03 | 0.03 | 82 | 1013.1 |
| 20260502031003 | 42 | 241 | 1.0 | 3.0 | 0.00 | 0.03 | 0.03 | 82 | 1013.1 |
| 20260502030503 | 42 | 225 | 1.0 | 2.0 | 0.00 | 0.03 | 0.03 | 82 | 1013.1 |
| 20260502030217 | 42 | 213 | 1.0 | 2.0 | 0.00 | 0.03 | 0.03 | 82 | 1013.1 |
| 20260502025503 | 42 | 221 | 1.0 | 3.0 | 0.00 | 0.03 | 0.03 | 82 | 1013.2 |
| 20260502025003 | 42 | 242 | 1.0 | 2.0 | 0.00 | 0.03 | 0.03 | 82 | 1013.2 |
| 20260502024503 | 42 | 251 | 1.0 | 2.0 | 0.00 | 0.03 | 0.03 | 82 | 1013.2 |
| 20260502024216 | 42 | 250 | 1.0 | 3.0 | 0.00 | 0.03 | 0.03 | 82 | 1013.2 |
| 20260502023503 | 42 | 222 | 1.0 | 3.0 | 0.00 | 0.03 | 0.03 | 82 | 1013.2 |
| 20260502023003 | 42 | 202 | 1.0 | 2.0 | 0.00 | 0.03 | 0.03 | 83 | 1013.3 |
| 20260502022503 | 42 | 202 | 1.0 | 2.0 | 0.00 | 0.03 | 0.03 | 83 | 1013.2 |
| 20260502022003 | 42 | 215 | 0.0 | 2.0 | 0.00 | 0.03 | 0.03 | 83 | 1013.2 |
| 20260502021503 | 42 | 218 | 1.0 | 2.0 | 0.00 | 0.03 | 0.03 | 83 | 1013.2 |
| 20260502021003 | 42 | 217 | 1.0 | 2.0 | 0.00 | 0.03 | 0.03 | 82 | 1013.2 |
| 20260502020717 | 42 | 217 | 1.0 | 2.0 | 0.00 | 0.03 | 0.03 | 82 | 1013.2 |
| 20260502020218 | 42 | 229 | 1.0 | 3.0 | 0.00 | 0.03 | 0.03 | 81 | 1013.2 |
| 20260502015503 | 42 | 248 | 2.0 | 3.0 | 0.00 | 0.03 | 0.03 | 81 | 1013.1 |
| 20260502015003 | 43 | 248 | 1.0 | 3.0 | 0.00 | 0.03 | 0.03 | 82 | 1013.0 |
| 20260502014503 | 43 | 248 | 1.0 | 3.0 | 0.00 | 0.03 | 0.03 | 82 | 1013.0 |
| 20260502014003 | 43 | 248 | 1.0 | 2.0 | 0.00 | 0.03 | 0.03 | 82 | 1013.0 |
| 20260502013503 | 43 | 248 | 2.0 | 3.0 | 0.00 | 0.03 | 0.03 | 82 | 1013.0 |
| 20260502013005 | 43 | 245 | 2.0 | 3.0 | 0.00 | 0.03 | 0.03 | 82 | 1012.9 |
| 20260502012503 | 43 | 239 | 2.0 | 3.0 | 0.00 | 0.03 | 0.03 | 82 | 1012.9 |
| 20260502012003 | 43 | 235 | 2.0 | 3.0 | 0.00 | 0.03 | 0.03 | 83 | 1012.9 |
| 20260502011717 | 43 | 234 | 2.0 | 3.0 | 0.00 | 0.03 | 0.03 | 83 | 1012.9 |
| 20260502011003 | 43 | 234 | 1.0 | 3.0 | 0.00 | 0.03 | 0.03 | 83 | 1012.9 |
| 20260502010503 | 43 | 0 | 0.0 | 0.0 | 0.00 | 0.03 | 0.03 | 82 | 1012.8 |
| 20260502010003 | 44 | 0 | 0.0 | 0.0 | 0.00 | 0.03 | 0.03 | 82 | 1012.8 |
| 20260502005717 | 44 | 0 | 0.0 | 0.0 | 0.00 | 0.03 | 0.03 | 82 | 1012.7 |
| 20260502005003 | 44 | 0 | 0.0 | 0.0 | 0.00 | 0.03 | 0.03 | 82 | 1012.6 |
| 20260502004503 | 44 | 0 | 0.0 | 0.0 | 0.00 | 0.03 | 0.03 | 81 | 1012.5 |
| 20260502004003 | 44 | 234 | 0.0 | 2.0 | 0.00 | 0.03 | 0.03 | 82 | 1012.4 |
| 20260502003503 | 44 | 232 | 1.0 | 2.0 | 0.00 | 0.03 | 0.03 | 81 | 1012.3 |
| 20260502003003 | 44 | 226 | 2.0 | 3.0 | 0.00 | 0.03 | 0.03 | 80 | 1012.3 |
| 20260502002503 | 44 | 222 | 1.0 | 3.0 | 0.00 | 0.03 | 0.03 | 80 | 1012.2 |
| 20260502002218 | 45 | 224 | 1.0 | 2.0 | 0.00 | 0.03 | 0.03 | 79 | 1012.1 |
| 20260502001503 | 45 | 228 | 0.0 | 2.0 | 0.00 | 0.03 | 0.03 | 79 | 1011.9 |
| 20260502001003 | 45 | 228 | 1.0 | 2.0 | 0.00 | 0.03 | 0.03 | 78 | 1011.9 |
| 20260502000503 | 46 | 228 | 1.0 | 3.0 | 0.00 | 0.03 | 0.03 | 78 | 1011.9 |
| 20260502000003 | 46 | 228 | 0.0 | 3.0 | 0.00 | 0.03 | 0.03 | 78 | 1011.9 |
| 20260501235503 | 46 | 0 | 0.0 | 0.0 | 0.00 | 0.03 | 0.03 | 78 | 1011.9 |
| 20260501235003 | 46 | 0 | 0.0 | 0.0 | 0.00 | 0.04 | 0.03 | 76 | 1011.7 |
| 20260501234503 | 46 | 0 | 0.0 | 0.0 | 0.00 | 0.04 | 0.03 | 75 | 1011.7 |
| 20260501234217 | 46 | 228 | 0.0 | 1.0 | 0.00 | 0.04 | 0.03 | 73 | 1011.6 |
| 20260501233503 | 46 | 228 | 0.0 | 2.0 | 0.00 | 0.04 | 0.03 | 75 | 1011.6 |
| 20260501233217 | 46 | 228 | 0.0 | 2.0 | 0.00 | 0.04 | 0.03 | 75 | 1011.5 |
| 20260501232503 | 47 | 228 | 0.0 | 2.0 | 0.00 | 0.04 | 0.03 | 75 | 1011.5 |
| 20260501232003 | 47 | 228 | 1.0 | 2.0 | 0.00 | 0.04 | 0.03 | 75 | 1011.5 |
| 20260501231718 | 47 | 228 | 0.0 | 2.0 | 0.00 | 0.04 | 0.03 | 73 | 1011.5 |
| 20260501231003 | 47 | 231 | 1.0 | 2.0 | 0.00 | 0.04 | 0.03 | 73 | 1011.4 |
| 20260501230503 | 47 | 221 | 1.0 | 2.0 | 0.00 | 0.04 | 0.03 | 74 | 1011.4 |
| 20260501230003 | 47 | 168 | 1.0 | 3.0 | 0.00 | 0.04 | 0.03 | 73 | 1011.4 |
| 20260501225503 | 47 | 161 | 1.0 | 3.0 | 0.00 | 0.04 | 0.03 | 72 | 1011.4 |
| 20260501225003 | 47 | 203 | 1.0 | 2.0 | 0.00 | 0.04 | 0.03 | 73 | 1011.3 |
| 20260501224718 | 47 | 204 | 1.0 | 2.0 | 0.00 | 0.04 | 0.03 | 74 | 1011.4 |
| 20260501224003 | 47 | 204 | 1.0 | 2.0 | 0.00 | 0.04 | 0.03 | 73 | 1011.4 |
| 20260501223503 | 47 | 204 | 1.0 | 2.0 | 0.00 | 0.04 | 0.03 | 72 | 1011.4 |
| 20260501223003 | 47 | 204 | 1.0 | 2.0 | 0.00 | 0.04 | 0.03 | 74 | 1011.3 |
| 20260501222503 | 47 | 205 | 1.0 | 3.0 | 0.00 | 0.04 | 0.03 | 74 | 1011.4 |
| 20260501222003 | 47 | 224 | 0.0 | 3.0 | 0.00 | 0.04 | 0.03 | 74 | 1011.3 |
| 20260501221503 | 47 | 259 | 1.0 | 3.0 | 0.00 | 0.04 | 0.03 | 72 | 1011.3 |
| 20260501221003 | 47 | 279 | 0.0 | 2.0 | 0.00 | 0.04 | 0.03 | 75 | 1011.4 |
| 20260501220503 | 47 | 254 | 0.0 | 2.0 | 0.00 | 0.04 | 0.03 | 76 | 1011.3 |
| 20260501220003 | 47 | 196 | 0.0 | 2.0 | 0.00 | 0.04 | 0.03 | 77 | 1011.4 |
| 20260501215503 | 47 | 203 | 1.0 | 4.0 | 0.00 | 0.04 | 0.03 | 75 | 1011.4 |
| 20260501215003 | 47 | 201 | 1.0 | 4.0 | 0.00 | 0.04 | 0.03 | 76 | 1011.4 |
| 20260501214503 | 46 | 195 | 1.0 | 3.0 | 0.00 | 0.04 | 0.03 | 77 | 1011.5 |
| 20260501214003 | 46 | 194 | 0.0 | 3.0 | 0.00 | 0.04 | 0.03 | 78 | 1011.4 |
| 20260501213718 | 46 | 194 | 0.0 | 2.0 | 0.00 | 0.04 | 0.03 | 80 | 1011.2 |
| 20260501213003 | 46 | 181 | 1.0 | 3.0 | 0.00 | 0.04 | 0.03 | 78 | 1011.3 |
| 20260501212717 | 46 | 191 | 1.0 | 5.0 | 0.00 | 0.04 | 0.03 | 79 | 1011.4 |
| 20260501212003 | 46 | 222 | 0.0 | 5.0 | 0.00 | 0.04 | 0.03 | 81 | 1011.3 |
| 20260501211503 | 46 | 151 | 0.0 | 2.0 | 0.00 | 0.04 | 0.03 | 83 | 1011.2 |
| 20260501211218 | 46 | 179 | 0.0 | 2.0 | 0.00 | 0.04 | 0.03 | 82 | 1011.1 |
| 20260501210503 | 45 | 264 | 0.0 | 2.0 | 0.00 | 0.04 | 0.03 | 80 | 1011.2 |
| 20260501210218 | 45 | 270 | 1.0 | 2.0 | 0.00 | 0.04 | 0.03 | 81 | 1011.2 |
| 20260501205503 | 45 | 259 | 1.0 | 4.0 | 0.00 | 0.04 | 0.03 | 80 | 1011.3 |
| 20260501205003 | 45 | 227 | 2.0 | 6.0 | 0.00 | 0.04 | 0.03 | 81 | 1011.1 |
| 20260501204503 | 46 | 189 | 1.0 | 6.0 | 0.00 | 0.04 | 0.03 | 81 | 1011.1 |
| 20260501204003 | 46 | 156 | 1.0 | 3.0 | 0.00 | 0.04 | 0.03 | 83 | 1011.0 |
| 20260501203503 | 45 | 152 | 1.0 | 2.0 | 0.00 | 0.04 | 0.03 | 85 | 1010.9 |
| 20260501203003 | 45 | 134 | 1.0 | 2.0 | 0.00 | 0.04 | 0.03 | 86 | 1011.1 |
| 20260501202503 | 45 | 139 | 1.0 | 2.0 | 0.00 | 0.04 | 0.03 | 85 | 1011.1 |
| 20260501202003 | 45 | 175 | 1.0 | 3.0 | 0.00 | 0.04 | 0.03 | 85 | 1011.2 |
| 20260501201503 | 44 | 168 | 1.0 | 3.0 | 0.00 | 0.04 | 0.03 | 86 | 1011.1 |
| 20260501201003 | 44 | 182 | 1.0 | 3.0 | 0.00 | 0.04 | 0.03 | 85 | 1011.2 |
| 20260501200503 | 44 | 188 | 0.0 | 3.0 | 0.01 | 0.04 | 0.03 | 85 | 1011.3 |
| 20260501200003 | 44 | 153 | 1.0 | 2.0 | 0.01 | 0.04 | 0.03 | 88 | 1011.3 |
| 20260501195503 | 44 | 162 | 1.0 | 2.0 | 0.01 | 0.04 | 0.03 | 87 | 1011.4 |
| 20260501195003 | 44 | 198 | 0.0 | 2.0 | 0.01 | 0.04 | 0.03 | 86 | 1011.4 |
| 20260501194503 | 44 | 198 | 0.0 | 3.0 | 0.01 | 0.04 | 0.03 | 87 | 1011.6 |